Time,TemperatureF,DewpointF,PressureIn,WindDirection,WindDirectionDegrees,WindSpeedMPH,WindSpeedGustMPH,Humidity,HourlyPrecipIn,Conditions,Clouds,dailyrainin,SolarRadiationWatts/m^2,SoftwareType,DateUTC
2013-03-27 00:01:00,61.0,60.0,-100.00,NNW,329,4.0,8.0,95,0.00,,,0.00,0.000000,,2013-03-27 10:01:00,
2013-03-27 00:32:00,61.0,60.0,-100.00,NNW,329,4.0,8.0,95,0.00,,,0.00,0.000000,,2013-03-27 10:32:00,
2013-03-27 00:42:00,61.0,60.0,-100.00,NNW,329,4.0,8.0,95,0.00,,,0.00,0.000000,,2013-03-27 10:42:00,
2013-03-27 00:52:00,61.0,60.0,-100.00,NNW,329,4.0,8.0,95,0.00,,,0.00,0.000000,,2013-03-27 10:52:00,
2013-03-27 01:01:00,61.0,59.0,-100.00,North,350,4.0,11.0,92,0.00,,,0.00,0.000000,,2013-03-27 11:01:00,
2013-03-27 01:32:00,61.0,59.0,-100.00,North,350,4.0,11.0,92,0.00,,,0.00,0.000000,,2013-03-27 11:32:00,
2013-03-27 01:42:00,61.0,59.0,-100.00,North,350,4.0,11.0,92,0.00,,,0.00,0.000000,,2013-03-27 11:42:00,
2013-03-27 01:52:00,61.0,59.0,-100.00,North,350,4.0,11.0,92,0.00,,,0.00,0.000000,,2013-03-27 11:52:00,
2013-03-27 02:01:00,61.0,55.0,-100.00,North,8,7.0,15.0,80,0.00,,,-99.99,0.000000,,2013-03-27 12:01:00,
2013-03-27 02:32:00,61.0,55.0,-100.00,North,8,7.0,15.0,80,0.00,,,-99.99,0.000000,,2013-03-27 12:32:00,
2013-03-27 02:43:00,61.0,55.0,-100.00,North,8,7.0,15.0,80,0.00,,,-99.99,0.000000,,2013-03-27 12:43:00,
2013-03-27 02:52:00,61.0,55.0,-100.00,North,8,7.0,15.0,80,0.00,,,-99.99,0.000000,,2013-03-27 12:52:00,
2013-03-27 03:01:00,60.0,55.0,-100.00,NNE,19,6.0,10.0,84,0.00,,,0.00,0.000000,,2013-03-27 13:01:00,
2013-03-27 03:33:00,60.0,55.0,-100.00,NNE,19,6.0,10.0,84,0.00,,,0.00,0.000000,,2013-03-27 13:33:00,
2013-03-27 03:42:00,60.0,55.0,-100.00,NNE,19,6.0,10.0,84,0.00,,,0.00,0.000000,,2013-03-27 13:42:00,
2013-03-27 03:53:00,60.0,55.0,-100.00,NNE,19,6.0,10.0,84,0.00,,,0.00,0.000000,,2013-03-27 13:53:00,
2013-03-27 04:01:00,59.0,55.0,-100.00,NNE,25,7.0,10.0,88,0.00,,,0.00,0.000000,,2013-03-27 14:01:00,
2013-03-27 04:22:00,59.0,55.0,-100.00,NNE,25,7.0,10.0,88,0.00,,,0.00,0.000000,,2013-03-27 14:22:00,
2013-03-27 04:32:00,59.0,55.0,-100.00,NNE,25,7.0,10.0,88,0.00,,,0.00,0.000000,,2013-03-27 14:32:00,
2013-03-27 04:42:00,59.0,55.0,-100.00,NNE,25,7.0,10.0,88,0.00,,,0.00,0.000000,,2013-03-27 14:42:00,
2013-03-27 04:52:00,59.0,55.0,-100.00,NNE,25,7.0,10.0,88,0.00,,,0.00,0.000000,,2013-03-27 14:52:00,
2013-03-27 05:01:00,59.0,55.0,-100.00,NNE,24,7.0,12.0,86,0.00,,,0.00,0.000000,,2013-03-27 15:01:00,
2013-03-27 05:33:00,59.0,55.0,-100.00,NNE,24,7.0,12.0,86,0.00,,,0.00,0.000000,,2013-03-27 15:33:00,
2013-03-27 05:43:00,59.0,55.0,-100.00,NNE,24,7.0,12.0,86,0.00,,,0.00,0.000000,,2013-03-27 15:43:00,
2013-03-27 05:52:00,59.0,55.0,-100.00,NNE,24,7.0,12.0,86,0.00,,,0.00,0.000000,,2013-03-27 15:52:00,
2013-03-27 08:01:00,66.0,54.0,-100.00,NNE,33,7.0,11.0,65,-99.99,,,0.00,180.000000,,2013-03-27 18:01:00,
2013-03-27 08:33:00,66.0,54.0,-100.00,NNE,33,7.0,11.0,65,-99.99,,,0.00,180.000000,,2013-03-27 18:33:00,
2013-03-27 08:42:00,66.0,54.0,-100.00,NNE,33,7.0,11.0,65,-99.99,,,0.00,180.000000,,2013-03-27 18:42:00,
2013-03-27 08:53:00,66.0,54.0,-100.00,NNE,33,7.0,11.0,65,-99.99,,,0.00,180.000000,,2013-03-27 18:53:00,
2013-03-27 09:01:00,66.0,57.0,-100.00,SE,133,4.0,12.0,72,0.00,,,0.00,363.000000,,2013-03-27 19:01:00,
2013-03-27 09:42:00,66.0,57.0,-100.00,SE,133,4.0,12.0,72,0.00,,,0.00,363.000000,,2013-03-27 19:42:00,
2013-03-27 09:52:00,66.0,57.0,-100.00,SE,133,4.0,12.0,72,0.00,,,0.00,363.000000,,2013-03-27 19:52:00,
2013-03-27 10:01:00,70.0,58.0,-100.00,ENE,68,9.0,13.0,65,0.00,,,0.00,408.000000,,2013-03-27 20:01:00,
2013-03-27 10:32:00,70.0,58.0,-100.00,ENE,68,9.0,13.0,65,0.00,,,0.00,408.000000,,2013-03-27 20:32:00,
2013-03-27 10:43:00,70.0,58.0,-100.00,ENE,68,9.0,13.0,65,0.00,,,0.00,408.000000,,2013-03-27 20:43:00,
2013-03-27 10:52:00,70.0,58.0,-100.00,ENE,68,9.0,13.0,65,0.00,,,0.00,408.000000,,2013-03-27 20:52:00,
2013-03-27 11:01:00,65.0,61.0,-100.00,ESE,119,12.0,17.0,87,0.00,,,0.00,432.000000,,2013-03-27 21:01:00,
2013-03-27 11:32:00,65.0,61.0,-100.00,ESE,119,12.0,17.0,87,0.00,,,0.00,432.000000,,2013-03-27 21:32:00,
2013-03-27 11:43:00,65.0,61.0,-100.00,ESE,119,12.0,17.0,87,0.00,,,0.00,432.000000,,2013-03-27 21:43:00,
2013-03-27 11:52:00,65.0,61.0,-100.00,ESE,119,12.0,17.0,87,0.00,,,0.00,432.000000,,2013-03-27 21:52:00,
2013-03-27 12:01:00,67.0,61.0,-100.00,ESE,119,11.0,18.0,81,0.00,,,0.00,509.000000,,2013-03-27 22:01:00,
2013-03-27 12:23:00,67.0,61.0,-100.00,ESE,119,11.0,18.0,81,0.00,,,0.00,509.000000,,2013-03-27 22:23:00,
2013-03-27 12:33:00,67.0,61.0,-100.00,ESE,119,11.0,18.0,81,0.00,,,0.00,509.000000,,2013-03-27 22:33:00,
2013-03-27 12:42:00,67.0,61.0,-100.00,ESE,119,11.0,18.0,81,0.00,,,0.00,509.000000,,2013-03-27 22:42:00,
2013-03-27 12:52:00,67.0,61.0,-100.00,ESE,119,11.0,18.0,81,0.00,,,0.00,509.000000,,2013-03-27 22:52:00,
2013-03-27 13:01:00,64.0,59.0,-100.00,SE,133,12.0,18.0,85,0.00,,,0.00,389.000000,,2013-03-27 23:01:00,
2013-03-27 13:32:00,64.0,59.0,-100.00,SE,133,12.0,18.0,85,0.00,,,0.00,389.000000,,2013-03-27 23:32:00,
2013-03-27 13:42:00,64.0,59.0,-100.00,SE,133,12.0,18.0,85,0.00,,,0.00,389.000000,,2013-03-27 23:42:00,
2013-03-27 13:52:00,64.0,59.0,-100.00,SE,133,12.0,18.0,85,0.00,,,0.00,389.000000,,2013-03-27 23:52:00,